TimeCST,TemperatureF,Dew PointF,Humidity,Sea Level PressureIn,VisibilityMPH,Wind Direction,Wind SpeedMPH,Gust SpeedMPH,PrecipitationIn,Events,Conditions,WindDirDegrees,DateUTC
12:55 AM,39.0,30.9,73,30.18,10.0,WNW,9.2,-,N/A,,Clear,290,2012-11-23 06:55:00
1:55 AM,39.0,30.0,70,30.18,10.0,WNW,11.5,17.3,N/A,,Clear,290,2012-11-23 07:55:00
2:55 AM,36.0,30.0,79,30.18,10.0,West,6.9,-,N/A,,Clear,260,2012-11-23 08:55:00
3:55 AM,37.0,30.0,76,30.19,10.0,WNW,10.4,20.7,N/A,,Mostly Cloudy,300,2012-11-23 09:55:00
4:55 AM,37.0,24.1,59,30.22,10.0,NW,18.4,27.6,N/A,,Overcast,310,2012-11-23 10:55:00
5:55 AM,35.1,21.9,59,30.26,10.0,NW,15.0,29.9,N/A,,Overcast,320,2012-11-23 11:55:00
6:55 AM,30.9,17.1,57,30.29,10.0,WNW,21.9,38.0,N/A,,Clear,300,2012-11-23 12:55:00
7:55 AM,30.0,17.1,59,30.34,10.0,NW,16.1,25.3,N/A,,Clear,310,2012-11-23 13:55:00
8:55 AM,30.9,18.0,59,30.35,10.0,WNW,15.0,24.2,N/A,,Clear,290,2012-11-23 14:55:00
9:55 AM,32.0,17.1,54,30.38,10.0,NW,16.1,26.5,N/A,,Clear,310,2012-11-23 15:55:00
10:55 AM,33.1,17.1,52,30.39,10.0,WNW,18.4,26.5,N/A,,Clear,300,2012-11-23 16:55:00
11:55 AM,34.0,17.1,50,30.38,10.0,WNW,21.9,27.6,N/A,,Clear,290,2012-11-23 17:55:00
12:55 PM,35.1,17.1,48,30.38,10.0,WNW,17.3,24.2,N/A,,Clear,300,2012-11-23 18:55:00
1:55 PM,35.1,16.0,46,30.38,10.0,WNW,16.1,26.5,N/A,,Clear,290,2012-11-23 19:55:00
2:55 PM,34.0,16.0,48,30.39,10.0,WNW,15.0,23.0,N/A,,Clear,300,2012-11-23 20:55:00
3:55 PM,32.0,15.1,50,30.40,10.0,WNW,13.8,25.3,N/A,,Clear,300,2012-11-23 21:55:00
4:55 PM,30.0,15.1,54,30.41,10.0,NW,10.4,-,N/A,,Clear,310,2012-11-23 22:55:00
5:55 PM,28.0,15.1,58,30.42,10.0,WNW,9.2,-,N/A,,Clear,300,2012-11-23 23:55:00
6:55 PM,27.0,15.1,61,30.43,10.0,WNW,5.8,-,N/A,,Clear,300,2012-11-24 00:55:00
7:55 PM,25.0,15.1,66,30.43,10.0,WNW,6.9,-,N/A,,Clear,300,2012-11-24 01:55:00
8:55 PM,23.0,15.1,72,30.43,10.0,WNW,5.8,-,N/A,,Clear,290,2012-11-24 02:55:00
9:55 PM,23.0,15.1,72,30.42,10.0,WNW,6.9,-,N/A,,Clear,300,2012-11-24 03:55:00
10:55 PM,21.9,15.1,75,30.42,10.0,NW,8.1,-,N/A,,Clear,310,2012-11-24 04:55:00
11:55 PM,21.0,14.0,74,30.42,10.0,WNW,6.9,-,N/A,,Clear,300,2012-11-24 05:55:00